DLH27A EHBK-EDDL

Flight info

Callsign DLH27A
Flight time 0h 12m
Altitude 9000
Route NETEX Z282 LMA LMA1A
Aircraft A339/H-SADE1E2E3GHIJ3J5M1P2RWXY/LB2D1

Departure

Time 2026-05-05 14:16
Airport Maastricht Aachen Airport (EHBK)

Arrival

Time 2026-05-05 14:28
Airport Düsseldorf Airport (EDDL)
Time Latitude Longitude Altitude Speed Heading
2026-05-05 14:04 50.91744 5.77975 386 ft 0 kts 121°
2026-05-05 14:09 50.91752 5.77952 386 ft 3 kts 141°
2026-05-05 14:09 50.91771 5.77933 386 ft 3 kts 180°
2026-05-05 14:10 50.91794 5.77937 386 ft 3 kts 218°
2026-05-05 14:10 50.91808 5.77963 386 ft 3 kts 237°
2026-05-05 14:10 50.91806 5.77963 386 ft 4 kts 228°
2026-05-05 14:10 50.91793 5.77949 386 ft 0 kts 212°
2026-05-05 14:11 50.91792 5.77949 386 ft 1 kts 212°
2026-05-05 14:11 50.91771 5.77928 386 ft 6 kts 212°
2026-05-05 14:11 50.91720 5.77876 386 ft 11 kts 213°
2026-05-05 14:12 50.91640 5.77794 385 ft 16 kts 213°
2026-05-05 14:12 50.91594 5.77681 385 ft 11 kts 277°
2026-05-05 14:12 50.91638 5.77558 383 ft 15 kts 300°
2026-05-05 14:12 50.91621 5.77448 383 ft 10 kts 214°
2026-05-05 14:13 50.91548 5.77387 384 ft 17 kts 210°
2026-05-05 14:13 50.91321 5.77154 384 ft 65 kts 213°
2026-05-05 14:13 50.90846 5.76678 382 ft 68 kts 212°
2026-05-05 14:13 50.90579 5.76407 384 ft 20 kts 212°
2026-05-05 14:14 50.90566 5.76393 383 ft 0 kts 212°
2026-05-05 14:14 50.90490 5.76317 382 ft 31 kts 212°
2026-05-05 14:14 50.90217 5.76044 380 ft 53 kts 211°
2026-05-05 14:14 50.90062 5.75817 381 ft 9 kts 259°
2026-05-05 14:15 50.90022 5.75786 381 ft 5 kts 166°
2026-05-05 14:15 50.90016 5.75835 382 ft 5 kts 84°
2026-05-05 14:15 50.90050 5.75877 382 ft 9 kts 27°
2026-05-05 14:15 50.90205 5.76021 380 ft 61 kts 32°
2026-05-05 14:16 50.90897 5.76714 399 ft 166 kts 31°
2026-05-05 14:16 50.91911 5.77727 1451 ft 179 kts 31°
2026-05-05 14:16 50.92886 5.79040 2654 ft 186 kts 47°
2026-05-05 14:16 50.93656 5.80764 3680 ft 201 kts 60°
2026-05-05 14:17 50.94275 5.82892 4532 ft 223 kts 70°
2026-05-05 14:17 50.94753 5.85345 5327 ft 244 kts 72°
2026-05-05 14:17 50.95332 5.87992 5988 ft 265 kts 71°
2026-05-05 14:17 50.95979 5.90775 6731 ft 276 kts 70°
2026-05-05 14:18 50.96802 5.93567 7441 ft 284 kts 63°
2026-05-05 14:18 50.97787 5.96316 7484 ft 287 kts 60°
2026-05-05 14:18 50.98797 5.99000 7294 ft 281 kts 60°
2026-05-05 14:18 50.99787 6.01654 6989 ft 278 kts 60°
2026-05-05 14:19 51.00766 6.04337 6894 ft 280 kts 61°
2026-05-05 14:19 51.01719 6.07000 6886 ft 281 kts 61°
2026-05-05 14:19 51.02677 6.09707 6886 ft 281 kts 62°
2026-05-05 14:19 51.03636 6.12426 6883 ft 281 kts 62°
2026-05-05 14:20 51.04591 6.15140 6881 ft 281 kts 62°
2026-05-05 14:20 51.05547 6.17859 6880 ft 282 kts 62°
2026-05-05 14:20 51.06502 6.20580 6882 ft 281 kts 62°
2026-05-05 14:20 51.07448 6.23264 6875 ft 282 kts 62°
2026-05-05 14:21 51.08407 6.25984 6878 ft 281 kts 62°
2026-05-05 14:21 51.09365 6.28712 6842 ft 281 kts 62°
2026-05-05 14:21 51.10315 6.31426 6442 ft 282 kts 62°
2026-05-05 14:21 51.11268 6.34156 5799 ft 279 kts 62°
2026-05-05 14:22 51.12203 6.36833 5065 ft 275 kts 61°
2026-05-05 14:22 51.13115 6.39448 4312 ft 271 kts 61°
2026-05-05 14:22 51.14020 6.42046 3552 ft 266 kts 60°
2026-05-05 14:22 51.14901 6.44583 3008 ft 254 kts 60°
2026-05-05 14:23 51.15722 6.46945 2816 ft 232 kts 60°
2026-05-05 14:23 51.16472 6.49105 2666 ft 215 kts 60°
2026-05-05 14:23 51.17178 6.51129 2571 ft 202 kts 59°
2026-05-05 14:23 51.17836 6.53010 2485 ft 191 kts 60°
2026-05-05 14:24 51.18455 6.54852 2401 ft 183 kts 60°
2026-05-05 14:24 51.19094 6.56523 2343 ft 168 kts 55°
2026-05-05 14:24 51.19755 6.57996 2276 ft 158 kts 51°
2026-05-05 14:24 51.20395 6.59314 2208 ft 147 kts 51°
2026-05-05 14:25 51.20993 6.60570 2173 ft 137 kts 51°
2026-05-05 14:25 51.21546 6.61729 2072 ft 126 kts 51°
2026-05-05 14:25 51.22055 6.62796 2003 ft 122 kts 52°
2026-05-05 14:25 51.22617 6.63965 1965 ft 140 kts 51°
2026-05-05 14:26 51.23230 6.65187 1783 ft 140 kts 50°
2026-05-05 14:26 51.23821 6.66352 1558 ft 130 kts 49°
2026-05-05 14:26 51.24364 6.67544 1415 ft 139 kts 53°
2026-05-05 14:26 51.24897 6.68778 1196 ft 134 kts 53°
2026-05-05 14:27 51.25444 6.69950 1023 ft 133 kts 51°
2026-05-05 14:27 51.26023 6.71142 831 ft 136 kts 49°
2026-05-05 14:27 51.26609 6.72351 643 ft 135 kts 50°
2026-05-05 14:27 51.27159 6.73538 470 ft 136 kts 48°
2026-05-05 14:28 51.27741 6.74744 271 ft 135 kts 47°
2026-05-05 14:28 51.28286 6.75882 141 ft 124 kts 48°
2026-05-05 14:28 51.28715 6.76763 146 ft 72 kts 53°
2026-05-05 14:28 51.28893 6.77154 146 ft 14 kts 52°
2026-05-05 14:29 51.29000 6.77374 146 ft 43 kts 52°
2026-05-05 14:29 51.28968 6.77615 149 ft 11 kts 146°
2026-05-05 14:29 51.28963 6.77621 149 ft 0 kts 144°
2026-05-05 14:30 51.28902 6.77695 147 ft 25 kts 142°
2026-05-05 14:31 51.28760 6.77859 140 ft 17 kts 158°
2026-05-05 14:31 51.28689 6.77784 138 ft 17 kts 230°
2026-05-05 14:31 51.28665 6.77670 139 ft 17 kts 272°
2026-05-05 14:31 51.28590 6.77479 139 ft 11 kts 214°
2026-05-05 14:32 51.28555 6.77499 138 ft 6 kts 148°
2026-05-05 14:32 51.28541 6.77515 138 ft 2 kts 146°
2026-05-05 14:32 51.28537 6.77520 138 ft 0 kts 143°